Williston, ND

7:12 PM CDT on October 22, 2017 (GMT -0500)
Sloulin International

Weather History for KISN - March, 2014

Change the Weather History Date:

Tuesday, March 25, 2014

  Actual Average Record
Temperature  
Mean Temperature 18 °F 34 °F  
Max Temperature 31 °F 45 °F 78 °F (2007)
Min Temperature 5 °F 22 °F -20 °F (1964)
Degree Days  
Heating Degree Days 47 31  
Month to date heating degree days 985 929  
Since 1 July heating degree days 7934 7697  
Cooling Degree Days 0 0  
Month to date cooling degree days 0 0  
Year to date cooling degree days 0 0  
Moisture  
Dew Point 5 °F    
Average Humidity 56    
Maximum Humidity 80    
Minimum Humidity 31    
Precipitation  
Precipitation 0.00 in 0.03 in 0.36 in (1984)
Month to date precipitation 0.19 0.56  
Year to date precipitation 0.63 1.54  
Sea Level Pressure  
Sea Level Pressure 30.26 in    
Wind  
Wind Speed 6 mph (SSE)    
Max Wind Speed 13 mph    
Max Gust Speed 15 mph    
Visibility 10 miles    
Events      
T = Trace of Precipitation, MM = Missing Value Source: NWS Daily Summary

Daily Weather History Graph

Daily Weather History Graph

Search for Another Location

Airport or City:

Trip Planner

Search our weather history database for the weather conditions in past years. The results will help you decide how hot, cold, wet, or windy it might be!

Date:

Astronomy

Mar. 25, 2014 Rise Set
Actual Time 7:46 AM CDT 8:14 PM CDT
Civil Twilight 7:15 AM CDT 8:46 PM CDT
Nautical Twilight 6:38 AM CDT 9:23 PM CDT
Astronomical Twilight 6:00 AM CDT 10:01 PM CDT
Moon 4:33 AM CDT (3/25) 2:26 PM CDT (3/25)
Length of Visible Light 13h 30m
Length of Day
12h 27m
Waning Crescent, 32% of the Moon is Illuminated
Mar 25
Waning Crescent
Mar 30
New
Apr 7
First Quarter
Apr 15
Full
Apr 22
Last Quarter

Hourly Weather History & Observations

Time (CDT) Temp. Windchill Dew Point Humidity Pressure Visibility Wind Dir Wind Speed Gust Speed Precip Events Conditions
12:52 AM 10.0 °F -0.9 °F 3.9 °F 76% 30.50 in 10.0 mi WNW 6.9 mph - N/A   Clear
1:52 AM 10.9 °F 0.2 °F 3.9 °F 73% 30.49 in 10.0 mi WNW 6.9 mph - N/A   Partly Cloudy
2:52 AM 10.0 °F -1.9 °F 3.9 °F 76% 30.48 in 10.0 mi WNW 8.1 mph - N/A   Clear
3:52 AM 8.1 °F -4.3 °F 3.0 °F 80% 30.47 in 10.0 mi NW 8.1 mph - N/A   Clear
4:52 AM 9.0 °F -3.2 °F 3.0 °F 77% 30.46 in 10.0 mi WNW 8.1 mph - N/A   Clear
5:52 AM 8.1 °F -2.0 °F 3.0 °F 80% 30.44 in 10.0 mi NW 5.8 mph - N/A   Clear
6:52 AM 9.0 °F -0.9 °F 3.9 °F 80% 30.44 in 10.0 mi West 5.8 mph - N/A   Clear
7:52 AM 8.1 °F - 1.9 °F 76% 30.42 in 10.0 mi Calm Calm - N/A   Clear
8:52 AM 10.9 °F - 5.0 °F 77% 30.41 in 10.0 mi Calm Calm - N/A   Clear
9:52 AM 14.0 °F 8.2 °F 7.0 °F 74% 30.39 in 10.0 mi SSW 3.5 mph - N/A   Clear
10:52 AM 16.0 °F 10.4 °F 6.1 °F 65% 30.37 in 10.0 mi Variable 3.5 mph - N/A   Clear
11:52 AM 17.1 °F 11.7 °F 5.0 °F 59% 30.34 in 10.0 mi South 3.5 mph - N/A   Partly Cloudy
12:52 PM 19.0 °F 12.3 °F 7.0 °F 59% 30.31 in 10.0 mi Variable 4.6 mph - N/A   Mostly Cloudy
1:52 PM 23.0 °F 15.8 °F 6.1 °F 48% 30.25 in 10.0 mi WSW 5.8 mph - N/A   Clear
2:52 PM 26.1 °F 19.4 °F 6.1 °F 43% 30.19 in 10.0 mi East 5.8 mph - N/A   Clear
3:52 PM 28.0 °F 21.7 °F 7.0 °F 41% 30.15 in 10.0 mi Variable 5.8 mph - N/A   Clear
4:52 PM 30.0 °F 23.2 °F 5.0 °F 35% 30.10 in 10.0 mi South 6.9 mph - N/A   Clear
5:52 PM 30.0 °F 21.7 °F 5.0 °F 35% 30.06 in 10.0 mi SE 9.2 mph - N/A   Clear
6:52 PM 30.0 °F 24.1 °F 3.9 °F 33% 30.02 in 10.0 mi ESE 5.8 mph - N/A   Clear
7:52 PM 28.0 °F 20.0 °F 5.0 °F 38% 29.99 in 10.0 mi East 8.1 mph - N/A   Clear
8:52 PM 25.0 °F 19.3 °F 7.0 °F 46% 29.96 in 10.0 mi East 4.6 mph - N/A   Clear
9:52 PM 25.0 °F 15.5 °F 8.1 °F 49% 29.92 in 10.0 mi ESE 9.2 mph - N/A   Clear
10:52 PM 25.0 °F 19.3 °F 9.0 °F 51% 29.90 in 10.0 mi ESE 4.6 mph - N/A   Clear
11:52 PM 25.0 °F 17.1 °F 9.0 °F 51% 29.87 in 10.0 mi East 6.9 mph - N/A   Clear